Flag for U.S.A. Weather past 2 weeks in Antioch, California, U.S.A.

Now
62 °F

Clear.


Feels Like: 62 °F
Forecast: 65 / 91 °F
Wind: No wind

Location: Buchanan Field

Current Time: Aug 30, 2014 at 7:55:24 AM

Latest Report: Aug 30, 2014 at 6:53 AM


Visibility: 10 mi

Pressure: 29.84 "Hg

Humidity: 70%

Dew point: 52 °F

Location of AntiochLocation

Historic Weather in Antioch — Graph

°F

Antioch temperature yesterday

Maximum temperature yesterday: 87 °F (at 3:53 PM)
Minimum temperature yesterday: 60 °F (at 3:53 AM)
Average temperature yesterday: 70 °F

Past Weeks' High & Low Weather Summary

 TemperatureHumidityPressure
High92 °F (Aug 27, 3:53 PM)93% (Aug 16, 5:53 AM)30.02 "Hg (Aug 16, 5:53 AM)
Low55 °F (Aug 23, 5:53 AM)9% (Aug 16, 6:53 PM)29.73 "Hg (Aug 18, 5:53 PM)
Average69 °F63%29.87 "Hg
* Reported Aug 15 5:53 AM — Aug 30 5:53 AM, Antioch, Weather by CustomWeather, © 2014

Note: Actual official high and low records may vary slightly from our data, if they occured in-between our weather recording intervals... More about our weather records

Advertising

Antioch weather history for previous 24 hours

 ConditionsComfort  
Time TempWeatherWind HumidityBarometerVisibility
5:53 AM
Aug 30
63 °FClear.No wind68%29.83 "Hg10 mi
4:53 AM64 °FClear.No wind63%29.82 "Hg10 mi
3:53 AM67 °FClear.3 mph57%29.82 "Hg10 mi
2:53 AM67 °FClear.6 mph59%29.82 "Hg10 mi
1:53 AM67 °FClear.6 mph59%29.83 "Hg10 mi
12:53 AM69 °FClear.10 mph53%29.83 "Hg10 mi
11:53 PM
Aug 29
70 °FClear.8 mph53%29.83 "Hg10 mi
10:53 PM70 °FClear.10 mph53%29.83 "Hg10 mi
9:53 PM70 °FClear.9 mph55%29.83 "Hg10 mi
8:53 PM73 °FClear.9 mph50%29.83 "Hg10 mi
7:53 PM77 °FSunny.8 mph33%29.81 "Hg10 mi
6:53 PM79 °FSunny.8 mph36%29.80 "Hg10 mi
5:53 PM83 °FSunny.9 mph36%29.81 "Hg10 mi
4:53 PM86 °FSunny.9 mph37%29.80 "Hg10 mi
3:53 PM87 °FSunny.7 mph35%29.81 "Hg10 mi
2:53 PM85 °FSunny.12 mph37%29.82 "Hg10 mi
1:53 PM81 °FSunny.13 mph45%29.83 "Hg10 mi
11:53 AM73 °FSunny.No wind57%29.86 "Hg10 mi
10:53 AM70 °FPartly sunny.6 mph64%29.89 "Hg10 mi
9:53 AM66 °FSunny.8 mph73%29.89 "Hg10 mi
8:53 AM64 °FBroken clouds.6 mph75%29.89 "Hg10 mi
7:53 AM62 °FBroken clouds.6 mph80%29.88 "Hg10 mi
Weather by CustomWeather, © 2014

See weather overviewHow to use our weather pages